Regional Weather Roundup
Issued by NWS Green Bay, WI

Home | Current Version | Previous Version | Text Only | Print | Product List | Glossary Off
Versions: 1 2 3 4 5 6 7 8 9 10 11 12 13 14 15 16 17 18 19 20 21 22 23 24 25 26 27 28 29 30 31 32 33 34 35 36 37 38 39 40 41 42 43 44 45 46 47 48 49 50

000
ASUS43 KGRB 021110
RWRGRB

NORTH-CENTRAL AND NORTHEAST WISCONSIN REGIONAL WEATHER ROUNDUP
NATIONAL WEATHER SERVICE GREEN BAY WI
500 AM CST MON MAR 02 2015

WIZ005-009-010>012-018-019-021200-
NORTH CENTRAL WISCONSIN

CITY           SKY/WX    TMP DP  RH WIND       PRES   REMARKS
IRONWOOD       CLOUDY    12   9  85 W14       30.31R WCI  -3
MANITOWISH WTR CLOUDY    11   5  76 W10       30.30R WCI  -2
ARBOR VITAE    FLURRIES  14   6  70 NW10      30.30R WCI   1
EAGLE RIVER    FLURRIES  13   6  73 W8        30.27R WCI   2
LAND O LAKES   FLURRIES  14   8  74 NW7       30.27R WCI   4
RHINELANDER    CLOUDY    13   2  61 NW9       30.30R WCI   1
PHILLIPS       PTCLDY     8   3  82 CALM      30.34R
ANTIGO         CLEAR      8   4  81 NW7       30.31R WCI  -3
TOMAHAWK       MOCLDY    10   3  74 CALM      30.33R
MERRILL        FLURRIES   8   4  83 W3        30.34R
$$

WIZ013-073-021200-
NORTHEAST WISCONSIN

CITY           SKY/WX    TMP DP  RH WIND       PRES   REMARKS
IRON MOUNTAIN  CLEAR     13   4  67 W8        30.28R WCI   2
MARINETTE      MOCLDY    10   3  72 CALM      30.34R
OCONTO         CLEAR     10   5  78 W5        30.37R WCI   2
$$

WIZ017-030-035>037-045-021200-
CENTRAL WISCONSIN

CITY           SKY/WX    TMP DP  RH WIND       PRES   REMARKS
MEDFORD        CLEAR      6   2  85 NW6       30.34R WCI  -5
WAUSAU         PTCLDY    10   5  80 W8        30.34R WCI  -2
MOSINEE        CLEAR     10   7  85 NW9       30.36R WCI  -2
MARSHFIELD     CLEAR     10   4  76 NW9       30.37R WCI  -3
WISC RAPIDS    CLEAR      9   4  80 W5        30.41R WCI   1
STEVENS POINT  CLEAR     11   5  76 NW6       30.38R WCI   2
WAUPACA        CLEAR     14   7  75 W5        30.39R WCI   6
SHAWANO        CLEAR     15   8  72 W3        30.38R
CLINTONVILLE   CLEAR     12   7  79 W7        30.37R WCI   2
$$

WIZ038-039-048-051-021200-
FOX VALLEY

CITY           SKY/WX    TMP DP  RH WIND       PRES   REMARKS
NWS GREEN BAY  CLEAR     13   7  77 W7        30.37R WCI   3
APPLETON       NOT AVBL
OSHKOSH        CLEAR     14   6  70 W6        30.38R WCI   5
FOND DU LAC    CLEAR     14   6  70 W8        30.39R WCI   3
$$

WIZ022-050-052-021200-
EAST CENTRAL WISCONSIN

CITY           SKY/WX    TMP DP  RH WIND       PRES   REMARKS
STURGEON BAY   CLEAR     14   5  67 W7        30.35R WCI   4
MANITOWOC      CLEAR     15   9  76 W10       30.38R WCI   2
SHEBOYGAN      CLEAR     15   6  67 W9        30.38R WCI   3
$$

LMZ563-521-522-541>543-021200-
LAKESHORE

STATION/POSITION TIME  TEMP    WIND        PRES    VSBY  WAVE
                       AIR SEA DIR/SP/G                  HT/PER
                 (UTC) (F)     (DEG/KT/KT) (MB)    (MI)  (FT/S)
SHEBOYGAN LKSHOR 1100   17     270/  9/ 12 1030.4R
KEWAUNEE LKSHORE 1100   15     300/  5/  8 1026.9R
NORTHPORT PIER   1100   17     290/  9/ 19 1027.4R
SISTER BAY LKSHO 1000   12     290/ 10/ 11   N/A
CHAMBERS ISLAND  1100   13     220/  4/ 10 1027.4S
MENOMINEE LKSHOR 1100   15     250/  6     1027.8R
$$



USA.gov is the U.S. government's official web portal to all federal, state and local government web resources and services.